This is the latest recevied weather packets stored in our database for station/object KE2A-13. If no packets are shown the sender has not sent any weather packets the latest 10 day(s).
| Time | Temp. | Humidity | Pressure | Rain* | Wind** | Luminosity | Snow |
|---|---|---|---|---|---|---|---|
| 1778120100 | 14.44° C | 91% | 1009 hPa | 4.06 mm | - | - | - |
| 1778119200 | 14.44° C | 94% | 1008.9 hPa | 4.06 mm | - | - | - |
| 1778118300 | 15° C | 93% | 1008.7 hPa | 4.06 mm | - | - | - |
| 1778117400 | 15.56° C | 94% | 1008.6 hPa | 4.06 mm | - | - | - |
| 1778116500 | 16.11° C | 97% | 1008.4 hPa | 4.06 mm | - | - | - |
| 1778115600 | 16.11° C | 97% | 1007.8 hPa | 3.81 mm | - | - | - |
| 1778114700 | 16.11° C | 97% | 1007.7 hPa | 3.81 mm | - | - | - |
| 1778113800 | 16.11° C | 97% | 1007.5 hPa | 3.81 mm | - | - | - |
| 1778112900 | 16.11° C | 97% | 1007.6 hPa | 3.81 mm | - | - | - |
| 1778112000 | 16.67° C | 96% | 1007.3 hPa | 3.81 mm | - | - | - |
| 1778111100 | 16.67° C | 96% | 1007.2 hPa | 3.81 mm | - | - | - |
| 1778110200 | 16.67° C | 96% | 1007.2 hPa | 3.81 mm | - | - | - |
| 1778109300 | 16.67° C | 96% | 1007.3 hPa | 3.81 mm | - | - | - |
| 1778108400 | 16.67° C | 95% | 1007.4 hPa | 3.81 mm | - | - | - |
| 1778107500 | 17.22° C | 95% | 1007.2 hPa | 3.81 mm | - | - | - |
| 1778106600 | 17.22° C | 95% | 1007 hPa | 3.81 mm | - | - | - |
| 1778105700 | 17.22° C | 95% | 1006.8 hPa | 3.81 mm | - | - | - |
| 1778104800 | 16.67° C | 95% | 1006.8 hPa | 3.81 mm | - | - | - |
| 1778103900 | 16.67° C | 96% | 1006.7 hPa | 3.81 mm | - | - | - |
| 1778103000 | 16.67° C | 97% | 1006.6 hPa | 3.81 mm | - | - | - |
| 1778102100 | 16.67° C | 97% | 1006.6 hPa | 3.81 mm | - | - | - |
| 1778101200 | 16.67° C | 97% | 1006.5 hPa | 3.81 mm | - | - | - |
| 1778100301 | 16.67° C | 97% | 1006.5 hPa | 3.81 mm | - | - | - |
| 1778099400 | 16.67° C | 97% | 1006.5 hPa | 3.81 mm | - | - | - |
| 1778098500 | 16.67° C | 97% | 1006.6 hPa | 2.79 mm | - | - | - |
* Rain since midnight (hover to see other rain measurements)
** Current wind speed in m/s (hover to see current wind gust speed)